TimeCST,TemperatureF,Dew PointF,Humidity,Sea Level PressureIn,VisibilityMPH,Wind Direction,Wind SpeedMPH,Gust SpeedMPH,PrecipitationIn,Events,Conditions,WindDirDegrees,DateUTC
12:53 AM,17.1,10.9,77,30.01,10.0,NNW,6.9,-,N/A,,Overcast,340,2013-12-22 06:53:00
1:53 AM,16.0,10.9,81,30.03,10.0,NNW,6.9,-,N/A,,Overcast,330,2013-12-22 07:53:00
2:53 AM,14.0,10.0,84,30.06,10.0,Calm,Calm,-,N/A,,Mostly Cloudy,0,2013-12-22 08:53:00
3:53 AM,12.0,8.1,84,30.09,10.0,Calm,Calm,-,N/A,,Scattered Clouds,0,2013-12-22 09:53:00
4:53 AM,10.0,7.0,87,30.10,10.0,NNW,3.5,-,N/A,,Clear,330,2013-12-22 10:53:00
5:53 AM,9.0,6.1,88,30.13,10.0,NW,3.5,-,N/A,,Scattered Clouds,310,2013-12-22 11:53:00
6:53 AM,6.1,3.0,87,30.15,10.0,NW,4.6,-,N/A,,Clear,310,2013-12-22 12:53:00
7:53 AM,6.1,1.9,83,30.17,10.0,WNW,3.5,-,N/A,,Clear,300,2013-12-22 13:53:00
8:22 AM,12.2,8.6,85,30.05,10.0,NW,5.8,-,N/A,,Mostly Cloudy,320,2013-12-22 14:22:00
8:53 AM,17.1,12.0,81,30.18,10.0,WNW,4.6,-,N/A,,Overcast,300,2013-12-22 14:53:00
9:53 AM,21.0,14.0,74,30.19,10.0,North,9.2,-,N/A,,Mostly Cloudy,360,2013-12-22 15:53:00
10:53 AM,23.0,14.0,68,30.19,10.0,North,11.5,20.7,N/A,,Overcast,350,2013-12-22 16:53:00
11:53 AM,25.0,14.0,63,30.21,10.0,NW,12.7,21.9,N/A,,Mostly Cloudy,310,2013-12-22 17:53:00
12:16 PM,24.8,12.2,59,30.10,10.0,NW,12.7,23.0,N/A,,Scattered Clouds,320,2013-12-22 18:16:00
12:53 PM,28.9,14.0,54,30.18,10.0,WNW,10.4,-,N/A,,Clear,300,2013-12-22 18:53:00
1:53 PM,30.0,12.9,49,30.16,10.0,NW,6.9,-,N/A,,Clear,320,2013-12-22 19:53:00
2:53 PM,30.9,12.9,47,30.16,10.0,Calm,Calm,-,N/A,,Clear,0,2013-12-22 20:53:00
3:53 PM,30.9,12.9,47,30.18,10.0,Calm,Calm,-,N/A,,Mostly Cloudy,0,2013-12-22 21:53:00
4:53 PM,28.9,12.0,49,30.21,10.0,NE,5.8,-,N/A,,Overcast,40,2013-12-22 22:53:00
5:53 PM,27.0,10.9,51,30.25,10.0,NE,10.4,-,N/A,,Overcast,40,2013-12-22 23:53:00
6:53 PM,21.9,15.1,75,30.30,2.5,NE,13.8,-,0.00,Snow,Light Snow,40,2013-12-23 00:53:00
7:24 PM,21.2,15.8,80,30.17,3.0,NE,13.8,-,0.01,Snow,Light Snow,50,2013-12-23 01:24:00
7:37 PM,19.4,15.8,86,30.18,2.0,NE,11.5,-,0.01,Snow,Light Snow,40,2013-12-23 01:37:00
7:44 PM,19.4,15.8,86,30.18,1.5,NE,12.7,-,0.01,Snow,Light Snow,40,2013-12-23 01:44:00
7:53 PM,19.9,15.1,81,30.33,1.5,NE,11.5,-,0.01,Snow,Light Snow,50,2013-12-23 01:53:00
8:00 PM,19.4,15.8,86,30.19,1.0,NE,9.2,-,0.01,Snow,Light Snow,50,2013-12-23 02:00:00
8:08 PM,19.4,15.8,86,30.20,1.0,NE,10.4,-,0.01,Snow,Light Snow,50,2013-12-23 02:08:00
8:53 PM,18.0,14.0,84,30.35,1.2,NE,8.1,-,0.03,Snow,Light Snow,50,2013-12-23 02:53:00
9:13 PM,17.6,12.2,79,30.23,1.5,NE,10.4,-,0.01,Snow,Light Snow,40,2013-12-23 03:13:00
9:53 PM,17.1,12.0,81,30.39,1.2,NE,11.5,-,0.02,Snow,Light Snow,40,2013-12-23 03:53:00
10:02 PM,15.8,12.2,86,30.27,1.0,NNE,8.1,-,0.01,Snow,Light Snow,30,2013-12-23 04:02:00
10:23 PM,15.8,12.2,86,30.28,1.5,NNE,8.1,-,0.01,Snow,Light Snow,20,2013-12-23 04:23:00
10:42 PM,15.8,12.2,86,30.28,1.2,NE,5.8,-,0.02,Snow,Light Snow,40,2013-12-23 04:42:00
10:50 PM,15.8,10.4,79,30.29,1.8,North,10.4,-,0.02,Snow,Light Snow,10,2013-12-23 04:50:00
10:53 PM,15.1,10.0,80,30.42,2.0,North,9.2,-,0.02,Snow,Light Snow,360,2013-12-23 04:53:00
11:49 PM,12.2,8.6,85,30.32,4.0,NNE,10.4,-,0.01,Snow,Light Snow,20,2013-12-23 05:49:00
11:50 PM,12.9,8.1,81,30.45,4.0,NNE,9.2,-,0.01,Snow,Light Snow,20,2013-12-23 05:50:00